Regional Weather Roundup
Issued by NWS Newport/Morehead, NC

Current Version | Previous Version | Text Only | Print | Product List | Glossary On
Versions: 1 2 3 4 5 6 7 8 9 10 11 12 13 14 15 16 17 18 19 20 21 22 23 24 25 26 27 28 29 30 31 32 33 34 35 36 37 38 39 40 41 42 43 44 45 46 47 48 49 50
000
ASUS42 KMHX 281310
RWRMHX
WEATHER ROUNDUP FOR EASTERN NORTH CAROLINA
NATIONAL WEATHER SERVICE NEWPORT/MOREHEAD CITY NC
900 AM EDT MON JUL 28 2014

NOTE: "FAIR" INDICATES FEW OR NO CLOUDS BELOW 12,000 FEET
WITH NO SIGNIFICANT WEATHER AND/OR OBSTRUCTIONS TO VISIBILITY

NCZ015>017-031-032-045>047-102-103-281400-
NORTH COAST

CITY           SKY/WX    TMP DP  RH WIND       PRES   REMARKS
EDENTON        MOSUNNY   83  69  64 W12G21    29.74R
ELIZABETH CITY MOSUNNY   83  74  74 SW15      29.72S
KITTY HAWK     PTSUNNY   83  74  76 SW7       29.72S
MANTEO         NOT AVBL

$$

NCZ045>047-081-094-103-104-281400-
CENTRAL COAST

CITY           SKY/WX    TMP DP  RH WIND       PRES   REMARKS
FRISCO         PTSUNNY   82  80  94 SW12      29.78R FOG
SWANQUARTER      N/A     82 N/A N/A SW14      29.74R

$$

NCZ095-097-098-100-101-281400-
SOUTHERN COAST

CITY           SKY/WX    TMP DP  RH WIND       PRES   REMARKS
BEAUFORT       PTSUNNY   84  76  76 W13         N/A
CEDAR ISLAND     N/A     82 N/A N/A S8G16     29.82R
JACKSONVILLE   CLOUDY    81  74  79 W8        29.80R
NEWPORT        NOT AVBL
PINEY ISLAND   CLOUDY    84  77  79 SW13      29.78R
WILMINGTON     CLOUDY    83  74  74 W9        29.82R


$$

NCZ011>013-027>030-043-044-078>080-089-090>093-098-281400-
COASTAL PLAIN

CITY           SKY/WX    TMP DP  RH WIND       PRES   REMARKS
AHOSKIE        SUNNY     80  68  66 S3        29.74R
CLINTON        CLOUDY    80  71  73 W6        29.82R
ELIZABETHTOWN  CLOUDY    80  73  78 SW5       29.82S
GOLDSBORO      PTSUNNY   79  69  70 W13       29.78R
GREENVILLE     MOSUNNY   81  68  65 W9        29.80R
HAVELOCK       CLOUDY    82  75  79 SW9       29.80R
KENANSVILLE    CLOUDY    80  68  68 W5        29.82R
KINSTON        PTSUNNY   81  66  61 SW7       29.80R
NEW BERN       CLOUDY    83  74  74 SW9       29.80R
RICHLANDS      CLOUDY    79  72  78 SW8       29.81R
ROANOKE RAPIDS NOT AVBL
ROCKY MOUNT    SUNNY     80  65  59 W8        29.77R
WASHINGTON     PTSUNNY   79  71  74 W12       29.76S
WHITEVILLE     CLOUDY    81  74  80 SW5       29.82R

$$

AMZ130-135-150-152-154-156-158-170-250-252-270-ANZ085-086-088-633-658-670-281400-
MARINE OBSERVATIONS

STATION/POSITION TIME  TEMP    WIND        PRES    WAVE   SWELL
                       AIR SEA DIR/SP/G            HT/PER HT/PER
                 (UTC) (F)     (DEG/KT/KT) (MB)    (FT/S) (FT/S)
CHESAPEAKE LIGHT NOT AVBL
BUOY 44014       1300   80 78  230/ 19/ 21 1004.9    5/ 6   2/ 9
DUCK             1300   81 61  220/ 12/ 17 1005.7
2E DUCK          1200                        N/A     2/10
OREGON INLET     1300   82 81  210/ 16/ 19 1007.0
BUOY 44095       1300      78                N/A     4/ 6
20E OREGON INLET NOT AVBL
HATTERAS CG      1300   82 81  220/ 10/ 16 1008.7
DIAMOND BUOY     1300          VRB 19/ 23  1008.0    7/ 6   2/ 9
CAPE LOOKOUT     1200   83     220/ 12/ 16 1008.6
BEAUFORT LAB     1300   83 82  240/  6/ 12 1008.8
30 SE NEW RIVER  1300   83 81  230/ 16/ 17 1009.4    6/ 6   2/10
5 SE WRIGHTSVILL 1200   80 82  250/ 14/ 16   N/A
BUOY 41002       1209   82 81  240/ 17/ 21 1014.8    6/ 6   2/ 9
BUOY 41004       1300   84 83  240/ 17/ 19 1011.1    5/ 5   2/10

$$



USA.gov is the U.S. government's official web portal to all federal, state and local government web resources and services.